Location: Morlupo
(42.1333°N, 12.5000°E)
Time: 16:23:25
(UTC+00:00)

Cosmos 1891 Rocket - Pass Details

Date: 18 September 2020
Orbit: 934 x 1018 km, 82.9° (Epoch: 25 October)

Event Time Altitude Azimuth Distance (km) Brightness Sun altitude
Rises 18:23:14 0° 178° (S) 3,652 7.3 -13.6°
Reaches altitude 10° 18:25:46 10° 176° (S) 2,697 6.6 -14.0°
Maximum altitude 18:31:53 70° 94° (E) 1,011 4.4 -15.1°
Drops below altitude 10° 18:37:55 10° 12° (NNE) 2,667 6.9 -16.2°
Sets 18:40:24 0° 11° (N) 3,609 7.6 -16.6°
